Springfield, OH

12:50 PM EDT on March 30, 2017 (GMT -0400)
Springfield-Beckley Municipal

Weather History for KSGH - August, 2013

Change the Weather History Date:

Tuesday, August 27, 2013

  Actual Average (KFFO) Record (KFFO)
Temperature  
Mean Temperature 76 °F -  
Max Temperature 86 °F 80 °F 90 °F (2016)
Min Temperature 66 °F 59 °F 53 °F (1998)
Cooling Degree Days 11    
Growing Degree Days 26 (Base 50)    
Moisture  
Dew Point 72 °F    
Average Humidity 88    
Maximum Humidity 100    
Minimum Humidity 67    
Precipitation  
Precipitation 0.00 in - - ()
Sea Level Pressure  
Sea Level Pressure 30.04 in    
Wind  
Wind Speed 5 mph (SSW)    
Max Wind Speed 7 mph    
Max Gust Speed -    
Visibility 5 miles    
Events      
Averages and records for this station are not official NWS values.
T = Trace of Precipitation, MM = Missing Value Source: NWS Daily Summary

Daily Weather History Graph

Daily Weather History Graph

Search for Another Location

Airport or City:

Trip Planner

Search our weather history database for the weather conditions in past years. The results will help you decide how hot, cold, wet, or windy it might be!

Date:

Astronomy

Aug. 27, 2013 Rise Set
Actual Time 6:58 AM EDT 8:14 PM EDT
Civil Twilight 6:30 AM EDT 8:41 PM EDT
Nautical Twilight 5:57 AM EDT 9:15 PM EDT
Astronomical Twilight 5:22 AM EDT 9:50 PM EDT
Moon No Moon Rise 1:55 PM EDT (8/27)
Length of Visible Light 14h 11m
Length of Day
13h 15m
Waning Gibbous, 57% of the Moon is Illuminated
Aug 27
Waning Gibbous
Aug 28
Last Quarter
Sep 5
New
Sep 12
First Quarter
Sep 19
Full

Hourly Weather History & Observations

Time (EDT) Temp. Heat Index Dew Point Humidity Pressure Visibility Wind Dir Wind Speed Gust Speed Precip Events Conditions
12:56 AM 70.9 °F - 68.0 °F 91% 30.07 in 6.0 mi South 3.5 mph - N/A   Clear
1:56 AM 70.9 °F - 68.0 °F 91% 30.07 in 6.0 mi SW 5.8 mph - N/A   Clear
2:56 AM 70.0 °F - 68.0 °F 93% 30.07 in 6.0 mi South 3.5 mph - N/A   Clear
3:56 AM 66.9 °F - 66.9 °F 100% 30.06 in 4.0 mi SW 6.9 mph - N/A   Clear
4:56 AM 68.9 °F - 68.0 °F 97% 30.06 in 4.0 mi SSW 4.6 mph - N/A   Clear
5:56 AM 68.9 °F - 68.0 °F 97% 30.05 in 3.0 mi SW 5.8 mph - N/A   Clear
6:56 AM 68.0 °F - 68.0 °F 100% 30.06 in 2.0 mi SSW 3.5 mph - N/A   Clear
7:15 AM 66.2 °F - 66.2 °F 100% 30.10 in 1.2 mi SSW 3.5 mph - N/A   Clear
7:23 AM 66.2 °F - 66.2 °F 100% 30.09 in 1.0 mi SSW 4.6 mph - N/A   Clear
7:56 AM 68.0 °F - 68.0 °F 100% 30.07 in 1.0 mi SSW 4.6 mph - N/A   Clear
8:14 AM 69.8 °F - 69.8 °F 100% 30.09 in 1.2 mi SSW 5.8 mph - N/A   Clear
8:56 AM 70.9 °F - 70.9 °F 100% 30.07 in 1.5 mi South 4.6 mph - N/A   Clear
9:24 AM 73.4 °F - 71.6 °F 94% 30.09 in 2.0 mi South 4.6 mph - N/A   Clear
9:40 AM 75.2 °F - 73.4 °F 94% 30.10 in 3.0 mi SW 6.9 mph - N/A   Clear
9:56 AM 77.9 °F - 72.9 °F 84% 30.07 in 4.0 mi Variable 6.9 mph - N/A   Haze
10:56 AM 79.9 °F - 72.9 °F 79% 30.07 in 5.0 mi Variable 6.9 mph - N/A   Haze
11:56 AM 81.0 °F 85.6 °F 72.9 °F 76% 30.06 in 6.0 mi South 3.5 mph - N/A   Haze
12:56 PM 81.9 °F 87.7 °F 73.9 °F 77% 30.06 in 5.0 mi South 5.8 mph - N/A   Haze
1:56 PM 84.9 °F 94.1 °F 75.9 °F 74% 30.04 in 6.0 mi South 5.8 mph - N/A   Haze
2:56 PM 86.9 °F 95.9 °F 74.8 °F 67% 30.02 in 6.0 mi SSW 6.9 mph - N/A   Haze
3:56 PM 84.9 °F 94.1 °F 75.9 °F 74% 30.00 in 6.0 mi South 4.6 mph - N/A   Haze
4:56 PM 86.0 °F 96.0 °F 75.9 °F 72% 29.98 in 6.0 mi SSW 6.9 mph - N/A   Haze
5:56 PM 84.9 °F 94.1 °F 75.9 °F 74% 29.97 in 7.0 mi SSW 5.8 mph - N/A   Clear
6:56 PM 84.9 °F 95.3 °F 77.0 °F 77% 29.97 in 6.0 mi South 3.5 mph - N/A   Haze
7:56 PM 81.9 °F 88.9 °F 75.9 °F 82% 29.98 in 6.0 mi South 3.5 mph - N/A   Haze
8:56 PM 77.9 °F - 74.8 °F 90% 29.97 in 7.0 mi SSW 4.6 mph - N/A   Clear
9:56 PM 79.0 °F - 73.9 °F 84% 29.97 in 7.0 mi SSW 5.8 mph - N/A   Clear
10:56 PM 77.9 °F - 73.9 °F 88% 29.97 in 7.0 mi SSW 5.8 mph - N/A   Clear
11:56 PM 75.9 °F - 72.9 °F 90% 29.97 in 7.0 mi SSW 5.8 mph - N/A   Clear